User: anonymous   Login
Location: Lac de la Montange Noire
(46.1952°N, 74.2701°W)
Time: 04:55:33
(UTC-04:00)
Language:

Iridium 42 - Orbit

View from above orbital plane
View from above orbital plane
View from above satellite
View from above satellite

Ground track
Ground track

The orbit data is extracted from the following two-line orbital elements,

1 25077U 97077A   15187.39955707  .00000147  00000-0  45365-4 0  9997
2 25077 086.3978 319.4876 0002302 090.4317 269.7142 14.34389862920159
Epoch (UTC): 06 July 2015 09:35:21
Eccentricity: 0.0002302
inclination: 86.3978°
perigee height: 775 km
apogee height: 779 km
right ascension of ascending node: 319.4876°
argument of perigee: 90.4317°
revolutions per day: 14.34389862
mean anomaly at epoch: 269.7142°
orbit number at epoch: 92015

The dashed part of the orbit path shows where the satellite is in the earth's shadow,  

DLR